Notices

What's New in latest Release from April 7th, 2021:

- Updated Glossary, including Speed of Maximum Gust, and Total Hourly Precipitation

- Updated national and regional climate services offices contacts and prices information

- Addition of station inventory lists for 1981-2010, 1971-2000, and 1961-1990 Normals.

If you haven't already, please take our survey and provide feedback about our website: https://eccc.sondage-survey.ca/f/LanguageSelection.aspx?s=442ca660-fcf1-47c0-95a9-59707d6fd709

Hourly Data Report for January 02, 2012

HALIFAX STANFIELD INT'L A
NOVA SCOTIA

44°52'48.060" N
63°30'00.050" W
145.40 m
8202250
71395
YHZ

Download Data

Hourly Data (January 2012)
Hourly Data Report for January 2, 2012
TIME
LST
Temp Definition
°C
Dew Point Definition
°C
Rel Hum Definition
%
Precip. Amount Definition
mm

Wind Dir Definition
10's deg

Wind Spd Definition
km/h
Visibility Definition
km
Stn Press Definition
kPa
Hmdx Definition


Wind Chill Definition


Weather Definition


00:00 -1.0 -2.2 92   14 11 19.3 99.52   -5 Snow Showers
01:00 -0.9 -1.9 93   18 20 24.1 99.51   -6 Snow Showers
02:00 -0.6 -1.6 93   17 17 24.1 99.50   -6 Snow Showers
03:00 -0.1 -1.0 94   16 17 24.1 99.48   -5 Cloudy
04:00 1.0 0.2 94   17 17 24.1 99.37     Cloudy
05:00 2.0 1.1 94   18 28 24.1 99.22     Cloudy
06:00 2.3 1.6 95   15 26 24.1 99.04     Cloudy
07:00 3.0 2.3 95   16 28 16.1 98.93     Cloudy
08:00 3.8 3.2 96   14 35 16.1 98.82     Cloudy
09:00 4.9 4.4 97   15 33 8.0 98.70     Rain,Fog
10:00 6.5 6.4 99   15 41 4.0 98.48     Rain,Fog
11:00 8.0 7.8 99   17 50 4.0 98.30     Rain,Fog
12:00 8.9 8.8 99   18 41 3.2 98.11     Moderate Rain,Fog
13:00 9.9 9.8 99   18 33 3.2 97.98     Rain,Fog
14:00 10.5 10.5 100   19 48 2.4 97.89     Rain,Fog
15:00 9.2 9.2 100   21 35 0.8 97.91     Fog
16:00 8.9 8.8 99   20 30 16.1 97.90     Cloudy
17:00 7.2 7.0 99   22 20 24.1 97.94     Mainly Clear
18:00 6.0 5.5 97   23 19 24.1 98.03     Mostly Cloudy
19:00 3.6 0.0 77   24 24 24.1 98.17     Clear
20:00 2.6 -0.9 78   23 22 24.1 98.25     Mainly Clear
21:00 2.4 -0.4 82   22 20 24.1 98.30     Mostly Cloudy
22:00 2.3 -1.2 78   23 24 24.1 98.32     Mainly Clear
23:00 1.0 -1.2 85   22 22 24.1 98.38     Mainly Clear

Notes on Data Quality.

Legend

  • E = Estimated
  • M = Missing
  • NA = Not Available*
  • [empty] = Indicates an unobserved value
Date modified: